#timestamp,LO_Frequency,Hit,StdDev 
1659481215.4,286047000.7,N
1659481235.2,286046998.2,N
1659481255.1,286046998.5,N
1659481256.0,286046998.5,N
1659481275.8,286046998.4,N
1659481295.7,286046998.9,N
1659481315.5,286046998.9,N
1659481335.3,286046996.5,N
1659481355.2,286046996.8,N
1659481375.0,286046997.2,N
1659481375.9,286046997.2,N
1659481395.7,286046997.0,N
1659481415.6,286046999.4,N
1659481435.4,286046996.7,N
1659481455.3,286046997.0,N
1659481475.1,286046999.4,N
1659481495.8,286046996.5,N
1659481515.7,286046996.6,N
1659481535.5,286046997.4,N
1659481555.4,286046998.0,N
1659481575.2,286046997.5,N
1659481595.0,286046995.5,N
1659481595.9,286046995.5,N
1659481615.8,286046995.8,N
1659481635.6,286046997.9,N
1659481655.5,286046997.6,N
1659481675.3,286046998.0,N
1659481695.1,286046995.2,Y
1659481715.9,286046996.8,P
1659481735.7,286046998.7,N
1659481755.5,286046998.1,N
1659481775.4,286047001.0,N
1659481795.2,286047000.0,N
1659481815.1,286047000.8,N
1659481816.0,286047000.8,N
1659481835.8,286047000.6,N
1659481855.6,286047000.8,N
1659481875.5,286047001.2,N
1659481895.3,286046998.8,N
1659481915.2,286046998.3,N
1659481935.9,286047000.7,N
1659481955.7,286046998.5,N
1659481975.6,286047000.7,N
1659481995.4,286047000.3,N
1659482015.2,286046999.7,N
1659482035.1,286047000.0,N
1659482036.0,286047000.0,N
1659482055.8,286047000.0,N
1659482075.7,286047000.0,N
1659482095.5,286046999.9,N
1659482115.3,286047000.1,N
1659482135.2,286046999.9,N
1659482155.0,286047000.2,N
1659482155.9,286047000.2,N
1659482175.8,286047002.8,N
1659482195.6,286047002.5,N
1659482215.4,286047001.9,N
1659482235.3,286047002.1,N
1659482255.1,286047002.3,N
1659482275.9,286046999.7,N
1659482295.7,286047001.7,N
1659482315.5,286047002.0,N
1659482335.4,286047001.8,N
1659482355.2,286047001.3,N
1659482375.0,286047001.5,N
1659482376.0,286047001.5,N
1659482395.9,286047001.7,N
1659482415.7,286047002.2,N
1659482435.5,286047001.8,N
1659482455.4,286047001.5,N
1659482475.2,286047001.7,N
1659482495.1,286047001.6,N
1659482496.0,286047001.6,N
1659482515.8,286047001.7,N
1659482535.6,286047004.0,Y
1659482555.5,286047002.8,P
1659482575.3,286047002.4,N
1659482595.2,286047001.9,N
1659482615.9,286046999.7,N
1659482635.7,286047002.1,N
1659482655.6,286046999.7,N
1659482675.4,286047002.6,N
1659482695.2,286047002.4,N
1659482715.1,286047002.8,N
1659482716.0,286047002.8,N
1659482735.8,286047002.4,N
1659482755.7,286047002.2,N
1659482775.5,286047002.2,N
1659482795.3,286047002.1,N
1659482815.2,286047002.7,N
1659482835.0,286047002.8,N
1659482835.9,286047002.8,N
1659482855.8,286047000.1,N
1659482875.6,286047002.8,N
1659482895.5,286047002.5,N
1659482915.3,286047002.4,N
1659482935.1,286046999.8,N
1659482955.9,286047001.8,N
1659482975.7,286047001.5,N
1659482995.5,286047001.3,N
1659483015.4,286047002.6,N
1659483035.2,286047002.3,N
1659483055.0,286047001.4,N
1659483056.0,286047001.4,N
1659483075.8,286047002.6,N
1659483095.6,286047001.3,N
1659483115.5,286047004.2,Y
1659483135.3,286047001.3,P
1659483155.1,286047001.6,P
1659483175.9,286047002.2,P
1659483195.7,286047001.6,Y
1659483215.6,286047000.9,P
1659483235.4,286047000.0,N
1659483255.2,286047000.5,N
1659483275.1,286047000.4,N
1659483276.0,286047000.4,N
1659483295.8,286046998.1,Y
1659483315.7,286046998.1,P
1659483335.5,286046999.2,N
1659483355.3,286046999.5,N
1659483375.2,286046996.6,Y
1659483395.0,286046998.9,P
1659483395.9,286046998.9,P
1659483415.8,286046998.8,P
1659483435.6,286046998.7,Y
1659483455.4,286047000.8,P
1659483475.3,286047000.3,N
1659483495.1,286047001.1,N
1659483515.9,286047001.2,N
1659483535.7,286046998.2,N
1659483555.5,286046998.7,N
1659483575.4,286047001.1,N
1659483595.2,286047001.2,N
1659483615.0,286047000.6,N
1659483615.9,286047000.6,N
1659483635.8,286047000.4,N
1659483655.6,286047000.1,N
1659483675.5,286047000.4,N
1659483695.3,286047000.4,N
1659483715.1,286047000.2,N
1659483735.9,286047000.9,N
1659483755.7,286047001.0,N
1659483775.5,286047001.2,N
1659483795.4,286047000.9,N
1659483815.2,286047000.4,N
1659483835.1,286047000.2,N
1659483836.0,286047000.2,N
1659483855.8,286046999.9,N
1659483875.6,286047001.1,N
1659483895.5,286047000.9,N
1659483915.3,286047000.5,N
1659483935.1,286047000.9,N
1659483955.9,286047001.0,N
1659483975.7,286046998.5,N
1659483995.6,286046998.2,N
1659484015.4,286047000.7,N
1659484035.2,286046998.6,N
1659484055.1,286046998.3,N
1659484056.0,286046998.3,N
1659484075.8,286047000.7,N
1659484095.6,286046998.1,N
1659484115.5,286047000.9,N
1659484135.3,286046998.5,N
1659484155.2,286047000.8,N
1659484175.9,286046998.8,N
1659484195.7,286047001.2,N
1659484215.6,286046998.1,N
1659484235.4,286046998.6,N
1659484255.2,286047000.8,N
1659484275.1,286046998.1,N
1659484276.0,286046998.1,N
1659484295.8,286047000.4,N
1659484315.7,286047001.2,N
1659484335.5,286047001.2,N
1659484355.3,286047000.9,N
1659484375.2,286047000.9,N
1659484395.0,286047000.4,N
1659484395.9,286047000.4,N
1659484415.8,286047000.2,N
1659484435.6,286047002.6,N
1659484455.4,286046999.9,N
1659484475.3,286047002.4,N
1659484495.1,286047002.6,N
1659484515.9,286046999.7,N
1659484535.7,286047002.3,N
1659484555.5,286047000.2,N
1659484575.4,286047002.4,N
1659484595.2,286047000.9,N
1659484615.1,286047000.9,N
1659484616.0,286047000.9,N
1659484635.8,286046999.8,N
1659484655.6,286047002.8,N
1659484675.5,286047002.7,N
1659484695.3,286046998.3,N
1659484715.1,286047001.1,N
1659484735.9,286047000.7,N
1659484755.7,286046998.6,N
1659484775.6,286047000.8,N
1659484795.4,286047000.6,N
